Location: Castelnau
(43.6639°N, 0.8431°W)
Time: 17:23:03
(UTC+00:00)

Lacrosse 5 rocket - Pass Details

Date: 13 January 2026
Orbit: 401 x 482 km, 57.0° (Epoch: 11 February)

Event Time Altitude Azimuth Distance (km) Brightness Sun altitude
Exits shadow 05:19:35 12° 15° (NNE) 1,563 3.7 -23.9°
Drops below altitude 10° 05:20:05 10° 21° (NNE) 1,685 3.9 -23.8°
Sets 05:22:53 0° 43° (NE) 2,572 5.2 -23.3°
